Weather History for Fitchburg, MA

Change the Weather History Date:

Wednesday, December 4, 2013

  Actual Average (KORH) Record (KORH)
Temperature  
Mean Temperature 33 °F 34 °F  
Max Temperature 43 °F 40 °F 65 °F (1982)
Min Temperature 23 °F 27 °F -9 °F (1940)
Degree Days  
Heating Degree Days 32 31  
Month to date heating degree days 123  
Since 1 July heating degree days 1525  
Cooling Degree Days 0 0  
Month to date cooling degree days 0  
Year to date cooling degree days 471  
Moisture  
Dew Point 24 °F    
Average Humidity 74    
Maximum Humidity 96    
Minimum Humidity 45    
Precipitation  
Precipitation 0.00 in 0.14 in 2.12 in (1990)
Month to date precipitation 0.54  
Year to date precipitation 44.79  
Sea Level Pressure  
Sea Level Pressure 30.11 in    
Wind  
Wind Speed 2 mph (NW)    
Max Wind Speed 12 mph    
Max Gust Speed -    
Visibility 8 miles    
Events      
T = Trace of Precipitation, MM = Missing Value Source: NWS Daily Summary

Daily Weather History Graph

Daily Weather History Graph

Search for Another Location

Airport:

Trip Planner

Search our weather history database for the weather conditions in past years. The results will help you decide how hot, cold, wet, or windy it might be!

Date:

Astronomy

Dec. 04, 2013 Rise Set
Actual Time 7:00 AM EST 4:14 PM EST
Civil Twilight 6:28 AM EST 4:45 PM EST
Nautical Twilight 5:53 AM EST 5:20 PM EST
Astronomical Twilight 5:19 AM EST 5:54 PM EST
Moon 8:25 AM EST (12/4) 6:22 PM EST (12/4)
Length of Visible Light 10h 16m
Length of Day
9h 13m
Waxing Crescent, 4% of the Moon is Illuminated
Dec 4
Waxing Crescent
Dec 9
First Quarter
Dec 17
Full
Dec 25
Last Quarter
Jan 1
New

Hourly Weather History & Observations

Time (EST) Temp. Windchill Dew Point Humidity Pressure Visibility Wind Dir Wind Speed Gust Speed Precip Events Conditions
12:52 AM 28.0 °F - 25.0 °F 88% 29.98 in 4.0 mi Calm Calm - N/A   Clear
1:47 AM 26.6 °F - 24.8 °F 93% 29.98 in 2.5 mi Calm Calm - N/A   Clear
1:52 AM 27.0 °F - 24.1 °F 89% 29.99 in 4.0 mi Calm Calm - N/A   Clear
2:52 AM 25.0 °F - 21.0 °F 85% 30.01 in 5.0 mi Calm Calm - N/A   Clear
3:52 AM 23.0 °F - 21.9 °F 96% 30.01 in 5.0 mi Calm Calm - N/A   Clear
4:52 AM 25.0 °F - 21.0 °F 85% 30.03 in 7.0 mi Calm Calm - N/A   Clear
5:52 AM 23.0 °F - 19.9 °F 88% 30.05 in 6.0 mi Calm Calm - N/A   Clear
6:52 AM 23.0 °F - 19.9 °F 88% 30.08 in 6.0 mi Calm Calm - N/A   Clear
7:52 AM 33.1 °F 24.9 °F 26.1 °F 75% 30.10 in 10.0 mi NW 10.4 mph - N/A   Clear
8:52 AM 35.1 °F 27.4 °F 25.0 °F 67% 30.11 in 10.0 mi NW 10.4 mph - N/A   Clear
9:52 AM 37.9 °F 30.5 °F 23.0 °F 55% 30.12 in 10.0 mi NNW 11.5 mph - N/A   Clear
10:52 AM 39.0 °F 33.4 °F 23.0 °F 53% 30.11 in 10.0 mi NW 8.1 mph - N/A   Clear
11:52 AM 41.0 °F 37.1 °F 23.0 °F 49% 30.11 in 10.0 mi NNW 5.8 mph - N/A   Scattered Clouds
12:52 PM 43.0 °F 38.8 °F 23.0 °F 45% 30.10 in 10.0 mi West 6.9 mph - N/A   Scattered Clouds
1:52 PM 43.0 °F 40.3 °F 23.0 °F 45% 30.10 in 10.0 mi WNW 4.6 mph - N/A   Partly Cloudy
2:52 PM 43.0 °F 38.8 °F 24.1 °F 47% 30.12 in 10.0 mi WNW 6.9 mph - N/A   Mostly Cloudy
3:52 PM 42.1 °F - 26.1 °F 53% 30.14 in 10.0 mi Calm Calm - 0.00 in   Overcast
4:52 PM 37.9 °F 35.5 °F 27.0 °F 65% 30.15 in 10.0 mi North 3.5 mph - N/A   Mostly Cloudy
5:52 PM 35.1 °F - 27.0 °F 72% 30.18 in 10.0 mi Calm Calm - N/A   Clear
6:52 PM 30.0 °F - 25.0 °F 82% 30.19 in 10.0 mi Calm Calm - N/A   Clear
7:52 PM 30.0 °F 26.5 °F 26.1 °F 85% 30.19 in 10.0 mi NW 3.5 mph - N/A   Clear
8:52 PM 30.0 °F - 26.1 °F 85% 30.19 in 10.0 mi Calm Calm - N/A   Clear
9:52 PM 28.0 °F - 24.1 °F 85% 30.20 in 9.0 mi Calm Calm - N/A   Clear
10:52 PM 28.9 °F - 25.0 °F 85% 30.20 in 10.0 mi Calm Calm - N/A   Clear
11:52 PM 28.9 °F 25.2 °F 26.1 °F 89% 30.21 in 8.0 mi NW 3.5 mph - N/A   Clear